sat.trackr.live / text

‹ back to catalog

STARLINK-30775

NORAD 58139 · 2023-162X

PAYLOAD ACTIVE UNKNOWN

§ Identity

Operator
Country
US
Launch date
2023-10-22
Launch site
AFETR
Launch vehicle
Mass (kg)
RCS (m²)

Purposes: comms

External: N2YO · Heavens-Above · Gunter

§ Orbital elements

Epoch: 2026-05-25T03:25:18.623424Z

Period
94.27 min
Inclination
43.0035°
Eccentricity
0.0000640
Mean motion
15.27576602 rev/d
Perigee alt
482.6 km
Apogee alt
483.5 km
Semi-major
6,861.2 km
B*
3.2822e-5
RAAN
60.3675°
Arg perigee
271.8885°
Mean anomaly
88.1893°
Rev number
14,400

§ Raw data

STARLINK-307751 58139U 23162X   26145.14257666  .00000641  00000+0  32822-4 0  99962 58139  43.0035  60.3675 0000640 271.8885  88.1893 15.27576602144006

JSON: /api/v1/satellites/58139 · /tle

For live sub-satellite position, see the globe view (requires WebGL).

§ Visibility from observer

Set your observer location to see the next 7 days of passes ≥ 10°. The values pass through the URL so the page stays shareable.

No JS? Fill the form by hand. The geolocation button needs JavaScript.